This is the latest recevied weather packets stored in our database for station/object FREPRT-WX. If no packets are shown the sender has not sent any weather packets the latest 10 day(s).
| Time | Temp. | Humidity | Pressure | Rain* | Wind** | Luminosity | Snow |
|---|---|---|---|---|---|---|---|
| 1777738538 | 6.67° C | 41% | 989.1 hPa | 0 mm | - | - | - |
| 1777737667 | 6.67° C | 41% | 989.1 hPa | 0 mm | - | - | - |
| 1777736738 | 6.11° C | 47% | 989.1 hPa | 0 mm | - | - | - |
| 1777735855 | 6.11° C | 50% | 989.3 hPa | 0 mm | - | - | - |
| 1777734938 | 5.56° C | 50% | 989.3 hPa | 0 mm | - | - | - |
| 1777734070 | 5.56° C | 50% | 989.3 hPa | 0 mm | - | - | - |
| 1777733138 | 5° C | 61% | 989.5 hPa | 0 mm | - | - | - |
| 1777732253 | 5° C | 58% | 989.9 hPa | 0 mm | - | - | - |
| 1777731339 | 4.44° C | 58% | 989.9 hPa | 0 mm | - | - | - |
| 1777730472 | 3.89° C | 58% | 989.9 hPa | 0 mm | - | - | - |
| 1777729539 | 3.89° C | 74% | 989.7 hPa | 0 mm | - | - | - |
| 1777728656 | 3.33° C | 74% | 989.7 hPa | 0 mm | - | - | - |
| 1777727738 | 2.78° C | 74% | 989.6 hPa | 0 mm | - | - | - |
| 1777726865 | 2.22° C | 74% | 989.6 hPa | 0 mm | - | - | - |
| 1777725938 | 1.67° C | 84% | 988.9 hPa | 0 mm | - | - | - |
| 1777725056 | 1.67° C | 83% | 989.7 hPa | 0 mm | - | - | - |
| 1777724138 | 1.11° C | 83% | 989.7 hPa | 0 mm | - | - | - |
| 1777723274 | 0.56° C | 83% | 989.7 hPa | 0 mm | - | - | - |
| 1777722338 | 0° C | 85% | 989.4 hPa | 0 mm | - | - | - |
| 1777721460 | 0° C | 87% | 989.4 hPa | 0 mm | - | - | - |
| 1777720538 | -0.56° C | 87% | 989.4 hPa | 0 mm | - | - | - |
| 1777719667 | -0.56° C | 87% | 989.4 hPa | 0 mm | - | - | - |
| 1777718738 | -0.56° C | 86% | 989.2 hPa | 0 mm | - | - | - |
| 1777717856 | -0.56° C | 89% | 989.5 hPa | 0 mm | - | - | - |
| 1777716938 | -0.56° C | 89% | 989.5 hPa | 0 mm | - | - | - |
* Rain latest hour (hover to see other rain measurements)
** Current wind speed in m/s (hover to see current wind gust speed)